Weather in Noosaville

Australia     26°23′45″S   153°05′25″E
temp.,
°C
wind,
m/s
gust,
m/s
humid.,
%
clouds,
%
prec.,
mm/h
press.,
hPa
HPBL,
m
12 may, wed
wed1201:00+17wsw119924 0.1 101617
04:00+17w119927 0.3 101619
07:00+18wsw119814 0.1 101723
10:00+22ese018812 1.0 1017258
13:00+26e126229 0.9 10151178
16:00+22se12910 2.9 1014186
19:00+18sse119857 0.8 101629
22:00+18wsw119829 1.1 101623
13 may, thu
thu1301:00+17wsw119810 0.0 101416
04:00+17wsw11988 0.2 101327
07:00+16wsw11973 0.0 101429
10:00+24wsw12640 0.0 1014645
13:00+26wsw144649 0.0 10111767
16:00+24s145841 0.1 1010242
19:00+15wsw28540 0.0 1013148
22:00+12wsw27640 0.0 1014147
14 may, fri
fri1401:00+13wsw27660 0.0 1013205
04:00+11w12740 0.0 101348
07:00+11w11770 0.0 101447
10:00+21ssw25380 0.0 1015784
13:00+24s23310 0.0 10121293
16:00+21sse11500 0.0 101247
19:00+14w11730 0.0 101521
22:00+12wsw11750 0.0 101619
15 may, sat
sat1501:00+10w11780 0.0 101620
04:00+9w11820 0.0 101523
07:00+10w11800 0.0 101744
10:00+20w11420 0.0 1017599
13:00+23sse13320 0.0 10141450
16:00+20s02483 0.0 101492
19:00+12wsw256314 0.0 101783
22:00+10wsw12705 0.0 101839
16 may, sun
sun1601:00+8sw11750 0.0 101832
04:00+9ssw267487 0.0 1019151
07:00+12s3127665 0.1 1021565
10:00+18sse485936 0.1 10221192
13:00+19sse465880 0.0 10211462
16:00+18sse367356 0.1 1021897
19:00+14s268965 0.3 1023237
22:00+12ssw24944 0.3 1023147